Date,TemperatureHighF,TemperatureAvgF,TemperatureLowF,DewpointHighF,DewpointAvgF,DewpointLowF,HumidityHigh,HumidityAvg,HumidityLow,PressureMaxIn,PressureMinIn,WindSpeedMaxMPH,WindSpeedAvgMPH,GustSpeedMaxMPH,PrecipitationSumIn
2013-1-1,34.7,23.8,8.6,27.7,16.8,4.9,87,75,62,30.05,29.83,8,4,18,0.01
2013-1-2,24.9,18.5,10.3,21.0,13.1,5.6,90,79,68,30.26,30.00,7,4,10,0.00
2013-1-3,28.8,20.1,8.5,24.8,15.2,4.9,87,81,72,30.25,30.00,5,2,11,0.00
2013-1-4,35.9,31.7,27.7,25.5,22.8,19.7,80,70,56,30.01,29.88,11,6,19,0.00
2013-1-5,36.4,32.0,26.6,27.4,24.2,21.3,83,73,60,30.29,30.01,9,3,16,0.00
2013-1-6,39.5,34.8,28.1,32.2,28.9,23.5,90,79,68,30.08,29.89,6,3,13,0.00
2013-1-7,35.3,27.4,18.6,31.8,22.5,15.6,93,82,67,30.40,30.06,7,3,11,0.00
2013-1-8,39.3,26.6,18.0,24.2,19.6,14.0,90,76,53,30.34,30.19,7,2,7,0.00
2013-1-9,50.4,33.8,16.1,37.4,26.1,14.2,94,74,59,30.32,29.96,9,4,15,0.00
2013-1-10,41.8,36.4,29.5,31.0,28.3,25.8,90,73,60,30.59,30.33,7,2,12,0.00
2013-1-11,41.5,37.9,32.7,36.3,31.7,27.6,87,79,67,30.45,29.92,13,9,18,0.10
2013-1-12,52.7,43.7,38.4,47.4,40.6,35.5,94,89,81,30.03,29.97,8,5,9,0.00
2013-1-13,58.9,55.2,50.9,52.0,50.2,48.0,90,83,77,29.88,29.77,12,6,13,0.00
2013-1-14,52.8,37.6,29.5,48.6,30.3,20.7,91,75,61,30.37,29.73,10,4,14,0.00
2013-1-15,34.2,29.7,27.6,23.6,21.3,18.7,80,71,55,30.40,30.20,4,2,7,0.00
2013-1-16,37.6,31.5,27.0,30.1,26.0,22.6,93,80,61,30.20,29.78,7,2,11,0.00
2013-1-17,35.7,26.1,17.2,29.3,18.9,11.8,88,74,60,30.19,29.85,12,4,15,0.00
2013-1-18,30.0,20.6,10.5,16.2,11.3,6.2,91,68,48,30.43,30.08,10,4,15,0.00
2013-1-19,49.8,42.2,29.8,31.8,24.8,16.8,68,50,38,30.07,29.61,9,4,16,0.00
2013-1-20,48.3,34.8,19.3,35.7,20.4,8.4,73,57,42,30.07,29.44,9,6,17,0.00
2013-1-21,21.9,19.0,15.3,14.4,9.5,6.4,80,66,58,30.06,29.87,6,2,9,0.00
2013-1-22,15.0,10.9,6.9,6.7,-2.2,-6.3,69,55,42,30.20,29.90,10,6,15,0.00
2013-1-23,10.5,5.8,-1.7,5.1,-0.5,-5.5,87,75,61,30.25,30.15,8,3,11,0.00
2013-1-24,14.4,6.0,-4.2,8.8,0.3,-8.1,86,77,60,30.53,30.14,9,3,14,0.00
2013-1-25,16.3,11.1,2.3,10.4,6.3,-0.4,89,81,71,30.51,30.11,5,2,8,0.00
2013-1-26,23.0,11.3,-1.5,15.0,6.6,-4.7,91,82,61,30.41,30.12,5,1,9,0.00
2013-1-27,27.8,20.0,11.9,16.5,14.2,9.3,92,78,60,30.58,30.41,5,1,7,0.01
2013-1-28,41.7,31.3,20.6,40.8,27.5,15.4,97,86,66,30.41,29.87,10,5,14,0.17
2013-1-29,49.9,39.8,31.6,48.5,38.8,30.7,97,96,94,30.07,29.79,12,4,13,0.37
2013-1-30,64.3,56.5,49.1,55.6,50.7,46.8,95,81,67,29.78,29.04,16,9,20,0.00
2013-1-31,54.7,32.4,22.3,51.9,23.0,11.2,91,68,51,29.69,29.00,15,9,34,0.25